| time (UTC) | temp F | wind direction | speed MPH | gust MPH | rain 1hr in | rain 24hr in | rain mn in | humidity % | barometer mb |
| 20260506211324 | 85 | 135 | 8.0 | 18.0 | 0.00 | 0.00 | 0.00 | 56 | 1012.8 |
| 20260506210320 | 85 | 247 | 4.0 | 12.0 | 0.00 | 0.00 | 0.00 | 56 | 1012.7 |
| 20260506205320 | 84 | 189 | 5.0 | 11.0 | 0.00 | 0.00 | 0.00 | 57 | 1012.7 |
| 20260506204316 | 83 | 152 | 7.0 | 19.0 | 0.00 | 0.00 | 0.00 | 58 | 1012.8 |
| 20260506203334 | 82 | 111 | 3.0 | 12.0 | 0.00 | 0.00 | 0.00 | 60 | 1012.9 |
| 20260506202309 | 82 | 143 | 5.0 | 14.0 | 0.00 | 0.00 | 0.00 | 60 | 1013.2 |
| 20260506201322 | 81 | 140 | 3.0 | 5.0 | 0.00 | 0.00 | 0.00 | 62 | 1013.0 |
| 20260506200324 | 81 | 161 | 3.0 | 6.0 | 0.00 | 0.00 | 0.00 | 61 | 1012.4 |
| 20260506195313 | 82 | 191 | 4.0 | 13.0 | 0.00 | 0.00 | 0.00 | 60 | 1013.5 |
| 20260506194309 | 82 | 258 | 4.0 | 16.0 | 0.00 | 0.00 | 0.00 | 58 | 1014.4 |
| 20260506193324 | 83 | 224 | 8.0 | 14.0 | 0.00 | 0.00 | 0.00 | 58 | 1014.6 |
| 20260506192325 | 83 | 196 | 5.0 | 15.0 | 0.00 | 0.00 | 0.00 | 57 | 1014.6 |
| 20260506191319 | 83 | 224 | 7.0 | 11.0 | 0.00 | 0.00 | 0.00 | 58 | 1014.6 |
| 20260506190314 | 83 | 242 | 5.0 | 14.0 | 0.00 | 0.00 | 0.00 | 58 | 1014.6 |
| 20260506185315 | 83 | 202 | 7.0 | 17.0 | 0.00 | 0.00 | 0.00 | 57 | 1014.7 |
| 20260506184311 | 84 | 251 | 6.0 | 11.0 | 0.00 | 0.00 | 0.00 | 55 | 1014.9 |
| 20260506183332 | 84 | 134 | 7.0 | 14.0 | 0.00 | 0.00 | 0.00 | 55 | 1015.0 |
| 20260506182327 | 85 | 283 | 7.0 | 16.0 | 0.00 | 0.00 | 0.00 | 55 | 1015.2 |
| 20260506181324 | 84 | 199 | 5.0 | 16.0 | 0.00 | 0.00 | 0.00 | 57 | 1015.1 |
| 20260506180317 | 84 | 249 | 5.0 | 15.0 | 0.00 | 0.00 | 0.00 | 57 | 1015.4 |
| 20260506175312 | 84 | 114 | 6.0 | 16.0 | 0.00 | 0.00 | 0.00 | 59 | 1015.1 |
| 20260506174316 | 83 | 167 | 5.0 | 13.0 | 0.00 | 0.00 | 0.00 | 61 | 1015.5 |
| 20260506173323 | 82 | 170 | 5.0 | 10.0 | 0.00 | 0.00 | 0.00 | 61 | 1015.5 |
| 20260506172313 | 82 | 133 | 5.0 | 10.0 | 0.00 | 0.00 | 0.00 | 61 | 1015.8 |
| 20260506171312 | 81 | 156 | 7.0 | 17.0 | 0.00 | 0.00 | 0.00 | 60 | 1015.8 |
| 20260506170319 | 82 | 156 | 4.0 | 10.0 | 0.00 | 0.00 | 0.00 | 59 | 1015.8 |
| 20260506165316 | 82 | 205 | 4.0 | 19.0 | 0.00 | 0.00 | 0.00 | 60 | 1015.9 |
| 20260506164336 | 82 | 152 | 6.0 | 13.0 | 0.00 | 0.00 | 0.00 | 60 | 1015.9 |
| 20260506163329 | 80 | 144 | 3.0 | 9.0 | 0.00 | 0.00 | 0.00 | 63 | 1015.7 |
| 20260506162323 | 80 | 209 | 6.0 | 13.0 | 0.00 | 0.00 | 0.00 | 61 | 1015.7 |
| 20260506161325 | 80 | 211 | 4.0 | 15.0 | 0.00 | 0.00 | 0.00 | 62 | 1015.9 |
| 20260506160315 | 80 | 155 | 8.0 | 16.0 | 0.00 | 0.00 | 0.00 | 62 | 1016.0 |
| 20260506155332 | 79 | 140 | 5.0 | 15.0 | 0.00 | 0.00 | 0.00 | 63 | 1015.9 |
| 20260506154324 | 78 | 166 | 5.0 | 13.0 | 0.00 | 0.00 | 0.00 | 64 | 1015.9 |
| 20260506153322 | 78 | 153 | 4.0 | 12.0 | 0.00 | 0.00 | 0.00 | 64 | 1015.8 |
| 20260506152317 | 77 | 147 | 5.0 | 16.0 | 0.00 | 0.00 | 0.00 | 63 | 1015.3 |
| 20260506151310 | 77 | 137 | 7.0 | 17.0 | 0.00 | 0.00 | 0.00 | 63 | 1015.8 |
| 20260506150309 | 77 | 142 | 7.0 | 12.0 | 0.00 | 0.00 | 0.00 | 63 | 1016.0 |
| 20260506145320 | 77 | 159 | 5.0 | 11.0 | 0.00 | 0.00 | 0.00 | 64 | 1016.1 |
| 20260506144319 | 76 | 177 | 6.0 | 14.0 | 0.00 | 0.00 | 0.00 | 65 | 1016.2 |
| 20260506143315 | 76 | 218 | 6.0 | 12.0 | 0.00 | 0.00 | 0.00 | 65 | 1016.2 |
| 20260506142313 | 75 | 161 | 4.0 | 12.0 | 0.00 | 0.00 | 0.00 | 66 | 1016.2 |
| 20260506141326 | 75 | 83 | 6.0 | 15.0 | 0.00 | 0.00 | 0.00 | 67 | 1016.4 |
| 20260506140324 | 75 | 213 | 3.0 | 9.0 | 0.00 | 0.00 | 0.00 | 68 | 1016.3 |
| 20260506135335 | 74 | 148 | 6.0 | 16.0 | 0.00 | 0.00 | 0.00 | 68 | 1016.4 |
| 20260506134312 | 74 | 219 | 6.0 | 12.0 | 0.00 | 0.00 | 0.00 | 69 | 1016.6 |
| 20260506133325 | 73 | 161 | 4.0 | 9.0 | 0.00 | 0.00 | 0.00 | 71 | 1016.6 |
| 20260506132316 | 72 | 145 | 4.0 | 10.0 | 0.00 | 0.00 | 0.00 | 72 | 1016.8 |
| 20260506131338 | 72 | 207 | 4.0 | 14.0 | 0.00 | 0.00 | 0.00 | 72 | 1016.7 |
| 20260506130330 | 72 | 192 | 5.0 | 9.0 | 0.00 | 0.00 | 0.00 | 72 | 1016.6 |
| 20260506125325 | 71 | 197 | 3.0 | 8.0 | 0.00 | 0.00 | 0.00 | 75 | 1016.2 |
| 20260506124342 | 71 | 175 | 3.0 | 9.0 | 0.00 | 0.00 | 0.00 | 76 | 1016.1 |
| 20260506123314 | 70 | 108 | 5.0 | 9.0 | 0.00 | 0.00 | 0.00 | 76 | 1016.3 |
| 20260506122332 | 70 | 163 | 3.0 | 11.0 | 0.00 | 0.00 | 0.00 | 76 | 1016.1 |
| 20260506121348 | 69 | 209 | 3.0 | 8.0 | 0.00 | 0.00 | 0.00 | 77 | 1016.0 |
| 20260506120317 | 69 | 231 | 5.0 | 10.0 | 0.00 | 0.00 | 0.00 | 78 | 1015.9 |
| 20260506115328 | 68 | 152 | 3.0 | 7.0 | 0.00 | 0.00 | 0.00 | 79 | 1016.0 |
| 20260506114323 | 67 | 167 | 4.0 | 10.0 | 0.00 | 0.00 | 0.00 | 80 | 1015.8 |
| 20260506113322 | 66 | 161 | 6.0 | 11.0 | 0.00 | 0.00 | 0.00 | 81 | 1015.6 |
| 20260506112316 | 66 | 174 | 4.0 | 8.0 | 0.00 | 0.00 | 0.00 | 81 | 1015.7 |
| 20260506111311 | 65 | 161 | 4.0 | 10.0 | 0.00 | 0.00 | 0.00 | 82 | 1015.7 |
| 20260506110334 | 65 | 135 | 3.0 | 9.0 | 0.00 | 0.00 | 0.00 | 82 | 1015.6 |
| 20260506105309 | 65 | 140 | 3.0 | 10.0 | 0.00 | 0.00 | 0.00 | 82 | 1015.6 |
| 20260506104311 | 65 | 112 | 4.0 | 11.0 | 0.00 | 0.00 | 0.00 | 83 | 1015.6 |
| 20260506103332 | 64 | 47 | 5.0 | 10.0 | 0.00 | 0.00 | 0.00 | 84 | 1015.4 |
| 20260506102324 | 64 | 111 | 4.0 | 9.0 | 0.00 | 0.00 | 0.00 | 85 | 1015.6 |
| 20260506101322 | 64 | 170 | 3.0 | 7.0 | 0.00 | 0.00 | 0.00 | 85 | 1015.8 |
| 20260506100345 | 64 | 212 | 2.0 | 5.0 | 0.00 | 0.00 | 0.00 | 85 | 1015.8 |
| 20260506095320 | 64 | 117 | 3.0 | 6.0 | 0.00 | 0.00 | 0.00 | 85 | 1015.9 |
| 20260506094323 | 64 | 81 | 3.0 | 6.0 | 0.00 | 0.00 | 0.00 | 85 | 1016.0 |
| 20260506093318 | 64 | 118 | 3.0 | 6.0 | 0.00 | 0.00 | 0.00 | 85 | 1016.1 |
| 20260506092312 | 64 | 185 | 4.0 | 7.0 | 0.00 | 0.00 | 0.00 | 86 | 1016.2 |
| 20260506091312 | 64 | 114 | 1.0 | 5.0 | 0.00 | 0.00 | 0.00 | 86 | 1016.1 |
| 20260506090309 | 64 | 184 | 2.0 | 4.0 | 0.00 | 0.00 | 0.00 | 86 | 1016.1 |
| 20260506085330 | 64 | 130 | 3.0 | 6.0 | 0.00 | 0.00 | 0.00 | 85 | 1015.9 |
| 20260506084310 | 64 | 148 | 2.0 | 5.0 | 0.00 | 0.00 | 0.00 | 85 | 1015.9 |
| 20260506083326 | 64 | 148 | 3.0 | 6.0 | 0.00 | 0.00 | 0.00 | 85 | 1016.0 |
| 20260506082327 | 64 | 178 | 3.0 | 7.0 | 0.00 | 0.00 | 0.00 | 85 | 1015.9 |
| 20260506081322 | 64 | 138 | 3.0 | 7.0 | 0.00 | 0.00 | 0.00 | 85 | 1015.9 |
| 20260506080316 | 64 | 185 | 3.0 | 5.0 | 0.00 | 0.00 | 0.00 | 84 | 1015.8 |
| 20260506073312 | 64 | 111 | 3.0 | 6.0 | 0.00 | 0.00 | 0.00 | 83 | 1015.9 |
| 20260506072326 | 64 | 138 | 3.0 | 7.0 | 0.00 | 0.00 | 0.00 | 83 | 1015.9 |
| 20260506071331 | 64 | 150 | 3.0 | 8.0 | 0.00 | 0.00 | 0.00 | 83 | 1015.9 |
| 20260506070323 | 64 | 153 | 3.0 | 5.0 | 0.00 | 0.00 | 0.00 | 83 | 1015.8 |
| 20260506062334 | 65 | 127 | 3.0 | 6.0 | 0.00 | 0.00 | 0.00 | 81 | 1016.2 |
| 20260506061311 | 65 | 157 | 3.0 | 8.0 | 0.00 | 0.00 | 0.00 | 81 | 1016.3 |
| 20260506060323 | 65 | 153 | 3.0 | 7.0 | 0.00 | 0.00 | 0.00 | 81 | 1016.5 |
| 20260506051317 | 66 | 150 | 3.0 | 10.0 | 0.00 | 0.00 | 0.00 | 79 | 1016.8 |
| 20260506050337 | 66 | 119 | 2.0 | 8.0 | 0.00 | 0.00 | 0.00 | 79 | 1016.9 |
| 20260506044328 | 67 | 149 | 2.0 | 9.0 | 0.00 | 0.00 | 0.00 | 78 | 1017.0 |
| 20260506043321 | 67 | 148 | 3.0 | 8.0 | 0.00 | 0.00 | 0.00 | 78 | 1017.1 |
| 20260506042321 | 67 | 147 | 3.0 | 9.0 | 0.00 | 0.00 | 0.00 | 77 | 1017.1 |
| 20260506041333 | 67 | 150 | 4.0 | 10.0 | 0.00 | 0.00 | 0.00 | 77 | 1017.1 |
| 20260506040311 | 67 | 150 | 4.0 | 10.0 | 0.00 | 0.00 | 0.00 | 77 | 1017.2 |
| 20260506035353 | 68 | 108 | 3.0 | 8.0 | 0.00 | 0.00 | 0.00 | 77 | 1017.3 |
| 20260506034326 | 68 | 162 | 4.0 | 10.0 | 0.00 | 0.00 | 0.00 | 76 | 1017.2 |
| 20260506033329 | 68 | 150 | 4.0 | 10.0 | 0.00 | 0.00 | 0.00 | 76 | 1017.2 |
| 20260506032351 | 68 | 147 | 5.0 | 11.0 | 0.00 | 0.00 | 0.00 | 76 | 1017.4 |
| 20260506031346 | 69 | 136 | 5.0 | 12.0 | 0.00 | 0.00 | 0.00 | 75 | 1017.4 |
| 20260506030329 | 69 | 136 | 5.0 | 10.0 | 0.00 | 0.00 | 0.00 | 75 | 1017.5 |
| 20260506025323 | 69 | 88 | 6.0 | 10.0 | 0.00 | 0.00 | 0.00 | 75 | 1017.5 |
| 20260506024318 | 69 | 155 | 5.0 | 10.0 | 0.00 | 0.00 | 0.00 | 74 | 1017.5 |
| 20260506023325 | 70 | 159 | 5.0 | 11.0 | 0.00 | 0.00 | 0.00 | 74 | 1017.3 |
| 20260506022341 | 70 | 101 | 4.0 | 12.0 | 0.00 | 0.00 | 0.00 | 73 | 1017.4 |
| 20260506021321 | 70 | 139 | 4.0 | 11.0 | 0.00 | 0.00 | 0.00 | 72 | 1017.3 |
| 20260506020318 | 70 | 79 | 3.0 | 12.0 | 0.00 | 0.00 | 0.00 | 71 | 1017.1 |
| 20260506015313 | 71 | 113 | 4.0 | 11.0 | 0.00 | 0.00 | 0.00 | 70 | 1017.1 |
| 20260506014314 | 71 | 159 | 4.0 | 12.0 | 0.00 | 0.00 | 0.00 | 70 | 1016.9 |
| 20260506013311 | 71 | 172 | 4.0 | 11.0 | 0.00 | 0.00 | 0.00 | 69 | 1016.8 |
| 20260506012330 | 72 | 123 | 5.0 | 11.0 | 0.00 | 0.00 | 0.00 | 69 | 1016.8 |
| 20260506011329 | 72 | 206 | 5.0 | 9.0 | 0.00 | 0.00 | 0.00 | 68 | 1016.7 |
| 20260506010331 | 73 | 133 | 6.0 | 9.0 | 0.00 | 0.00 | 0.00 | 67 | 1016.5 |
| 20260506005329 | 73 | 144 | 5.0 | 10.0 | 0.00 | 0.00 | 0.00 | 66 | 1016.3 |
| 20260506004324 | 74 | 155 | 5.0 | 10.0 | 0.00 | 0.00 | 0.00 | 66 | 1016.2 |
| 20260506003320 | 74 | 144 | 7.0 | 10.0 | 0.00 | 0.00 | 0.00 | 65 | 1016.1 |
| 20260506002343 | 75 | 114 | 6.0 | 14.0 | 0.00 | 0.00 | 0.00 | 64 | 1015.9 |
| 20260506001317 | 75 | 146 | 5.0 | 10.0 | 0.00 | 0.00 | 0.00 | 63 | 1015.9 |
| 20260506000319 | 76 | 116 | 6.0 | 12.0 | 0.00 | 0.00 | 0.00 | 62 | 1015.7 |
| 20260505235313 | 76 | 138 | 3.0 | 8.0 | 0.00 | 0.00 | 0.00 | 61 | 1015.8 |
| 20260505234334 | 77 | 182 | 5.0 | 11.0 | 0.00 | 0.00 | 0.00 | 59 | 1015.6 |
| 20260505233310 | 78 | 107 | 7.0 | 13.0 | 0.00 | 0.00 | 0.00 | 58 | 1015.5 |
| 20260505232327 | 78 | 137 | 7.0 | 13.0 | 0.00 | 0.00 | 0.00 | 57 | 1015.5 |
| 20260505231327 | 79 | 149 | 5.0 | 15.0 | 0.00 | 0.00 | 0.00 | 55 | 1015.3 |
| 20260505230329 | 80 | 182 | 5.0 | 13.0 | 0.00 | 0.00 | 0.00 | 55 | 1015.4 |
| 20260505225323 | 81 | 160 | 3.0 | 12.0 | 0.00 | 0.00 | 0.00 | 53 | 1015.5 |
| 20260505224317 | 82 | 145 | 3.0 | 13.0 | 0.00 | 0.00 | 0.00 | 53 | 1015.5 |
| 20260505223320 | 83 | 182 | 5.0 | 10.0 | 0.00 | 0.00 | 0.00 | 52 | 1015.5 |
| 20260505222338 | 83 | 150 | 5.0 | 16.0 | 0.00 | 0.00 | 0.00 | 51 | 1015.5 |
| 20260505221318 | 83 | 140 | 4.0 | 10.0 | 0.00 | 0.00 | 0.00 | 50 | 1015.7 |
| 20260505220311 | 83 | 132 | 5.0 | 12.0 | 0.00 | 0.00 | 0.00 | 52 | 1015.7 |
| 20260505215334 | 84 | 151 | 7.0 | 10.0 | 0.00 | 0.00 | 0.00 | 50 | 1015.6 |
| 20260505214310 | 84 | 122 | 7.0 | 14.0 | 0.00 | 0.00 | 0.00 | 48 | 1015.8 |
| 20260505213326 | 84 | 168 | 5.0 | 18.0 | 0.00 | 0.00 | 0.00 | 48 | 1015.7 |
| 20260505212324 | 83 | 174 | 4.0 | 13.0 | 0.00 | 0.00 | 0.00 | 48 | 1015.7 |